Location: Peebles
(55.6412°N, 3.1714°W)
Time: 15:31:39
(UTC+01:00)

Cosmos 1726 - Pass Details

Date: 26 September 2021
Orbit: 478 x 496 km, 82.5° (Epoch: 17 October)

Event Time Altitude Azimuth Distance (km) Brightness Sun altitude
Exits shadow 20:38:25 21° 72° (ENE) 1,135 3.5 -14.4°
Drops below altitude 10° 20:40:38 10° 37° (NE) 1,674 4.6 -14.7°
Sets 20:43:03 0° 22° (NNE) 2,557 5.7 -15.0°
